Year,Month,Day,Hour,Minute,Value (Times are PST for temperature in C)
2009,09,11,00,00,12.70
2009,09,11,00,01,12.70
2009,09,11,00,02,12.70
2009,09,11,00,03,12.70
2009,09,11,00,04,12.70
2009,09,11,00,05,12.70
2009,09,11,00,06,12.70
2009,09,11,00,07,12.60
2009,09,11,00,08,12.60
2009,09,11,00,09,12.60
2009,09,11,00,10,12.60
2009,09,11,00,11,12.60
2009,09,11,00,12,12.60
2009,09,11,00,13,12.60
2009,09,11,00,14,12.60
2009,09,11,00,15,12.60
2009,09,11,00,16,12.60
2009,09,11,00,17,12.60
2009,09,11,00,18,12.60
2009,09,11,00,19,12.60
2009,09,11,00,20,12.60
2009,09,11,00,21,12.50
2009,09,11,00,22,12.50
2009,09,11,00,23,12.50
2009,09,11,00,24,12.50
2009,09,11,00,25,12.50
2009,09,11,00,26,12.50
2009,09,11,00,27,12.40
2009,09,11,00,28,12.40
2009,09,11,00,29,12.40
2009,09,11,00,30,12.40
2009,09,11,00,31,12.40
2009,09,11,00,32,12.40
2009,09,11,00,33,12.40
2009,09,11,00,34,12.40
2009,09,11,00,35,12.30
2009,09,11,00,36,12.30
2009,09,11,00,37,12.30
2009,09,11,00,38,12.30
2009,09,11,00,39,12.30
2009,09,11,00,40,12.30
2009,09,11,00,41,12.30
2009,09,11,00,42,12.30
2009,09,11,00,43,12.30
2009,09,11,00,44,12.30
2009,09,11,00,45,12.20
2009,09,11,00,46,12.20
2009,09,11,00,47,12.20
2009,09,11,00,48,12.20
2009,09,11,00,49,12.20
2009,09,11,00,50,12.20
2009,09,11,00,51,12.20
2009,09,11,00,52,12.20
2009,09,11,00,53,12.20
2009,09,11,00,54,12.20
2009,09,11,00,55,12.20
2009,09,11,00,56,12.20
2009,09,11,00,57,12.20
2009,09,11,00,58,12.20
2009,09,11,00,59,12.20
2009,09,11,01,00,12.20
2009,09,11,01,01,12.20
2009,09,11,01,02,12.10
2009,09,11,01,03,12.10
2009,09,11,01,04,12.10
2009,09,11,01,05,12.10
2009,09,11,01,06,12.10
2009,09,11,01,07,12.10
2009,09,11,01,08,12.10
2009,09,11,01,09,12.00
2009,09,11,01,10,12.00
2009,09,11,01,11,12.00
2009,09,11,01,12,12.00
2009,09,11,01,13,12.00
2009,09,11,01,14,12.00
2009,09,11,01,15,12.00
2009,09,11,01,16,12.00
2009,09,11,01,17,11.90
2009,09,11,01,18,11.90
2009,09,11,01,19,11.90
2009,09,11,01,20,11.90
2009,09,11,01,21,11.90
2009,09,11,01,22,11.90
2009,09,11,01,23,11.90
2009,09,11,01,24,11.90
2009,09,11,01,25,11.90
2009,09,11,01,26,11.90
2009,09,11,01,27,11.90
2009,09,11,01,28,11.80
2009,09,11,01,29,11.80
2009,09,11,01,30,11.80
2009,09,11,01,31,11.80
2009,09,11,01,32,11.80
2009,09,11,01,33,11.80
2009,09,11,01,34,11.80
2009,09,11,01,35,11.80
2009,09,11,01,36,11.80
2009,09,11,01,37,11.80
2009,09,11,01,38,11.80
2009,09,11,01,39,11.80
2009,09,11,01,40,11.80
2009,09,11,01,41,11.80
2009,09,11,01,42,11.80
2009,09,11,01,43,11.80
2009,09,11,01,44,11.80
2009,09,11,01,45,11.80
2009,09,11,01,46,11.80
2009,09,11,01,47,11.80
2009,09,11,01,48,11.80
2009,09,11,01,49,11.80
2009,09,11,01,50,11.80
2009,09,11,01,51,11.80
2009,09,11,01,52,11.80
2009,09,11,01,53,11.80
2009,09,11,01,54,11.80
2009,09,11,01,55,11.80
2009,09,11,01,56,11.80
2009,09,11,01,57,11.80
2009,09,11,01,58,11.80
2009,09,11,01,59,11.80
2009,09,11,02,00,11.70
2009,09,11,02,01,11.70
2009,09,11,02,02,11.70
2009,09,11,02,03,11.70
2009,09,11,02,04,11.70
2009,09,11,02,05,11.70
2009,09,11,02,06,11.70
2009,09,11,02,07,11.70
2009,09,11,02,08,11.70
2009,09,11,02,09,11.70
2009,09,11,02,10,11.70
2009,09,11,02,11,11.70
2009,09,11,02,12,11.60
2009,09,11,02,13,11.60
2009,09,11,02,14,11.60
2009,09,11,02,15,11.60
2009,09,11,02,16,11.60
2009,09,11,02,17,11.60
2009,09,11,02,18,11.60
2009,09,11,02,19,11.60
2009,09,11,02,20,11.60
2009,09,11,02,21,11.60
2009,09,11,02,22,11.60
2009,09,11,02,23,11.60
2009,09,11,02,24,11.60
2009,09,11,02,25,11.60
2009,09,11,02,26,11.50
2009,09,11,02,27,11.50
2009,09,11,02,28,11.50
2009,09,11,02,29,11.50
2009,09,11,02,30,11.40
2009,09,11,02,31,11.40
2009,09,11,02,32,11.40
2009,09,11,02,33,11.40
2009,09,11,02,34,11.40
2009,09,11,02,35,11.40
2009,09,11,02,36,11.40
2009,09,11,02,37,11.40
2009,09,11,02,38,11.40
2009,09,11,02,39,11.40
2009,09,11,02,40,11.40
2009,09,11,02,41,11.30
2009,09,11,02,42,11.30
2009,09,11,02,43,11.30
2009,09,11,02,44,11.30
2009,09,11,02,45,11.30
2009,09,11,02,46,11.30
2009,09,11,02,47,11.30
2009,09,11,02,48,11.30
2009,09,11,02,49,11.30
2009,09,11,02,50,11.20
2009,09,11,02,51,11.20
2009,09,11,02,52,11.20
2009,09,11,02,53,11.20
2009,09,11,02,54,11.20
2009,09,11,02,55,11.20
2009,09,11,02,56,11.20
2009,09,11,02,57,11.20
2009,09,11,02,58,11.20
2009,09,11,02,59,11.20
2009,09,11,03,00,11.20
2009,09,11,03,01,11.30
2009,09,11,03,02,11.30
2009,09,11,03,03,11.30
2009,09,11,03,04,11.30
2009,09,11,03,05,11.30
2009,09,11,03,06,11.30
2009,09,11,03,07,11.30
2009,09,11,03,08,11.30
2009,09,11,03,09,11.30
2009,09,11,03,10,11.30
2009,09,11,03,11,11.30
2009,09,11,03,12,11.30
2009,09,11,03,13,11.20
2009,09,11,03,14,11.20
2009,09,11,03,15,11.20
2009,09,11,03,16,11.20
2009,09,11,03,17,11.20
2009,09,11,03,18,11.20
2009,09,11,03,19,11.20
2009,09,11,03,20,11.20
2009,09,11,03,21,11.10
2009,09,11,03,22,11.10
2009,09,11,03,23,11.10
2009,09,11,03,24,11.10
2009,09,11,03,25,11.10
2009,09,11,03,26,11.10
2009,09,11,03,27,11.10
2009,09,11,03,28,11.10
2009,09,11,03,29,11.10
2009,09,11,03,30,11.10
2009,09,11,03,31,11.10
2009,09,11,03,32,11.10
2009,09,11,03,33,11.10
2009,09,11,03,34,11.10
2009,09,11,03,35,11.10
2009,09,11,03,36,11.10
2009,09,11,03,37,11.10
2009,09,11,03,38,11.00
2009,09,11,03,39,11.00
2009,09,11,03,40,11.00
2009,09,11,03,41,11.00
2009,09,11,03,42,11.00
2009,09,11,03,43,11.00
2009,09,11,03,44,11.00
2009,09,11,03,45,11.00
2009,09,11,03,46,11.00
2009,09,11,03,47,11.00
2009,09,11,03,48,10.90
2009,09,11,03,49,10.90
2009,09,11,03,50,10.90
2009,09,11,03,51,10.90
2009,09,11,03,52,10.90
2009,09,11,03,53,10.90
2009,09,11,03,54,10.90
2009,09,11,03,55,10.90
2009,09,11,03,56,10.90
2009,09,11,03,57,10.90
2009,09,11,03,58,10.90
2009,09,11,03,59,10.90
2009,09,11,04,00,10.90
2009,09,11,04,01,10.80
2009,09,11,04,02,10.80
2009,09,11,04,03,10.80
2009,09,11,04,04,10.80
2009,09,11,04,05,10.80
2009,09,11,04,06,10.80
2009,09,11,04,07,10.80
2009,09,11,04,08,10.80
2009,09,11,04,09,10.80
2009,09,11,04,10,10.80
2009,09,11,04,11,10.80
2009,09,11,04,12,10.80
2009,09,11,04,13,10.80
2009,09,11,04,14,10.80
2009,09,11,04,15,10.80
2009,09,11,04,16,10.80
2009,09,11,04,17,10.80
2009,09,11,04,18,10.80
2009,09,11,04,19,10.90
2009,09,11,04,20,10.90
2009,09,11,04,21,10.80
2009,09,11,04,22,10.80
2009,09,11,04,23,10.80
2009,09,11,04,24,10.80
2009,09,11,04,25,10.80
2009,09,11,04,26,10.80
2009,09,11,04,27,10.80
2009,09,11,04,28,10.80
2009,09,11,04,29,10.80
2009,09,11,04,30,10.80
2009,09,11,04,31,10.80
2009,09,11,04,32,10.80
2009,09,11,04,33,10.80
2009,09,11,04,34,10.80
2009,09,11,04,35,10.80
2009,09,11,04,36,10.80
2009,09,11,04,37,10.80
2009,09,11,04,38,10.80
2009,09,11,04,39,10.80
2009,09,11,04,40,10.80
2009,09,11,04,41,10.70
2009,09,11,04,42,10.70
2009,09,11,04,43,10.70
2009,09,11,04,44,10.70
2009,09,11,04,45,10.70
2009,09,11,04,46,10.70
2009,09,11,04,47,10.70
2009,09,11,04,48,10.70
2009,09,11,04,49,10.70
2009,09,11,04,50,10.70
2009,09,11,04,51,10.70
2009,09,11,04,52,10.70
2009,09,11,04,53,10.80
2009,09,11,04,54,10.80
2009,09,11,04,55,10.80
2009,09,11,04,56,10.80
2009,09,11,04,57,10.80
2009,09,11,04,58,10.80
2009,09,11,04,59,10.80
2009,09,11,05,00,10.80
2009,09,11,05,01,10.80
2009,09,11,05,02,10.80
2009,09,11,05,03,10.80
2009,09,11,05,04,10.80
2009,09,11,05,05,10.80
2009,09,11,05,06,10.80
2009,09,11,05,07,10.80
2009,09,11,05,08,10.80
2009,09,11,05,09,10.80
2009,09,11,05,10,10.90
2009,09,11,05,11,10.90
2009,09,11,05,12,10.90
2009,09,11,05,13,10.90
2009,09,11,05,14,10.90
2009,09,11,05,15,10.90
2009,09,11,05,16,10.90
2009,09,11,05,17,10.90
2009,09,11,05,18,10.90
2009,09,11,05,19,10.90
2009,09,11,05,20,10.90
2009,09,11,05,21,10.90
2009,09,11,05,22,10.90
2009,09,11,05,23,10.90
2009,09,11,05,24,10.90
2009,09,11,05,25,10.80
2009,09,11,05,26,10.80
2009,09,11,05,27,10.80
2009,09,11,05,28,10.80
2009,09,11,05,29,10.80
2009,09,11,05,30,10.80
2009,09,11,05,31,10.80
2009,09,11,05,32,10.80
2009,09,11,05,33,10.90
2009,09,11,05,34,10.90
2009,09,11,05,35,10.90
2009,09,11,05,36,10.90
2009,09,11,05,37,10.90
2009,09,11,05,38,10.90
2009,09,11,05,39,10.90
2009,09,11,05,40,10.90
2009,09,11,05,41,10.90
2009,09,11,05,42,10.90
2009,09,11,05,43,10.90
2009,09,11,05,44,10.90
2009,09,11,05,45,10.80
2009,09,11,05,46,10.80
2009,09,11,05,47,10.80
2009,09,11,05,48,10.80
2009,09,11,05,49,10.80
2009,09,11,05,50,10.80
2009,09,11,05,51,10.80
2009,09,11,05,52,10.80
2009,09,11,05,53,10.80
2009,09,11,05,54,10.80
2009,09,11,05,55,10.80
2009,09,11,05,56,10.80
2009,09,11,05,57,10.90
2009,09,11,05,58,10.90
2009,09,11,05,59,10.90
2009,09,11,06,00,10.90
2009,09,11,06,01,10.90
2009,09,11,06,02,10.90
2009,09,11,06,03,10.90
2009,09,11,06,04,10.90
2009,09,11,06,05,10.90
2009,09,11,06,06,10.90
2009,09,11,06,07,10.90
2009,09,11,06,08,10.90
2009,09,11,06,09,10.90
2009,09,11,06,10,10.90
2009,09,11,06,11,10.80
2009,09,11,06,12,10.80
2009,09,11,06,13,10.80
2009,09,11,06,14,10.80
2009,09,11,06,15,10.80
2009,09,11,06,16,10.80
2009,09,11,06,17,10.80
2009,09,11,06,18,10.80
2009,09,11,06,19,10.80
2009,09,11,06,20,10.80
2009,09,11,06,21,10.80
2009,09,11,06,22,10.80
2009,09,11,06,23,10.80
2009,09,11,06,24,10.80
2009,09,11,06,25,10.80
2009,09,11,06,26,10.80
2009,09,11,06,27,10.80
2009,09,11,06,28,10.80
2009,09,11,06,29,10.80
2009,09,11,06,30,10.90
2009,09,11,06,31,10.90
2009,09,11,06,32,10.90
2009,09,11,06,33,10.90
2009,09,11,06,34,10.90
2009,09,11,06,35,10.90
2009,09,11,06,36,10.90
2009,09,11,06,37,10.90
2009,09,11,06,38,10.80
2009,09,11,06,39,10.80
2009,09,11,06,40,10.80
2009,09,11,06,41,10.80
2009,09,11,06,42,10.80
2009,09,11,06,43,10.80
2009,09,11,06,44,10.80
2009,09,11,06,45,10.80
2009,09,11,06,46,10.80
2009,09,11,06,47,10.80
2009,09,11,06,48,10.80
2009,09,11,06,49,10.80
2009,09,11,06,50,10.80
2009,09,11,06,51,10.80
2009,09,11,06,52,10.80
2009,09,11,06,53,10.80
2009,09,11,06,54,10.80
2009,09,11,06,55,10.90
2009,09,11,06,56,10.90
2009,09,11,06,57,10.90
2009,09,11,06,58,10.90
2009,09,11,06,59,11.00
2009,09,11,07,00,11.00
2009,09,11,07,01,10.90
2009,09,11,07,02,10.90
2009,09,11,07,03,10.90
2009,09,11,07,04,10.90
2009,09,11,07,05,10.90
2009,09,11,07,06,10.90
2009,09,11,07,07,10.90
2009,09,11,07,08,10.90
2009,09,11,07,09,10.90
2009,09,11,07,10,10.90
2009,09,11,07,11,10.90
2009,09,11,07,12,11.00
2009,09,11,07,13,11.00
2009,09,11,07,14,11.00
2009,09,11,07,15,11.00
2009,09,11,07,16,11.10
2009,09,11,07,17,11.10
2009,09,11,07,18,11.10
2009,09,11,07,19,11.10
2009,09,11,07,20,11.20
2009,09,11,07,21,11.20
2009,09,11,07,22,11.20
2009,09,11,07,23,11.20
2009,09,11,07,24,11.30
2009,09,11,07,25,11.30
2009,09,11,07,26,11.30
2009,09,11,07,27,11.40
2009,09,11,07,28,11.40
2009,09,11,07,29,11.50
2009,09,11,07,30,11.50
2009,09,11,07,31,11.50
2009,09,11,07,32,11.60
2009,09,11,07,33,11.60
2009,09,11,07,34,11.70
2009,09,11,07,35,11.70
2009,09,11,07,36,11.70
2009,09,11,07,37,11.70
2009,09,11,07,38,11.70
2009,09,11,07,39,11.70
2009,09,11,07,40,11.70
2009,09,11,07,41,11.70
2009,09,11,07,42,11.70
2009,09,11,07,43,11.70
2009,09,11,07,44,11.80
2009,09,11,07,45,11.80
2009,09,11,07,46,11.80
2009,09,11,07,47,11.80
2009,09,11,07,48,11.90
2009,09,11,07,49,11.90
2009,09,11,07,50,11.90
2009,09,11,07,51,11.90
2009,09,11,07,52,11.90
2009,09,11,07,53,11.90
2009,09,11,07,54,11.90
2009,09,11,07,55,11.90
2009,09,11,07,56,12.00
2009,09,11,07,57,12.00
2009,09,11,07,58,12.00
2009,09,11,07,59,12.00
2009,09,11,08,00,12.10
2009,09,11,08,01,12.10
2009,09,11,08,02,12.10
2009,09,11,08,03,12.10
2009,09,11,08,04,12.10
2009,09,11,08,05,12.20
2009,09,11,08,06,12.20
2009,09,11,08,07,12.20
2009,09,11,08,08,12.30
2009,09,11,08,09,12.30
2009,09,11,08,10,12.40
2009,09,11,08,11,12.40
2009,09,11,08,12,12.50
2009,09,11,08,13,12.50
2009,09,11,08,14,12.50
2009,09,11,08,15,12.60
2009,09,11,08,16,12.60
2009,09,11,08,17,12.70
2009,09,11,08,18,12.80
2009,09,11,08,19,12.80
2009,09,11,08,20,12.90
2009,09,11,08,21,13.00
2009,09,11,08,22,13.10
2009,09,11,08,23,13.10
2009,09,11,08,24,13.20
2009,09,11,08,25,13.30
2009,09,11,08,26,13.50
2009,09,11,08,27,13.60
2009,09,11,08,28,13.80
2009,09,11,08,29,13.90
2009,09,11,08,30,14.10
2009,09,11,08,31,14.20
2009,09,11,08,32,14.40
2009,09,11,08,33,14.50
2009,09,11,08,34,14.80
2009,09,11,08,35,15.00
2009,09,11,08,36,15.20
2009,09,11,08,37,15.40
2009,09,11,08,38,15.60
2009,09,11,08,39,15.80
2009,09,11,08,40,15.90
2009,09,11,08,41,16.00
2009,09,11,08,42,16.10
2009,09,11,08,43,16.20
2009,09,11,08,44,16.30
2009,09,11,08,45,16.40
2009,09,11,08,46,16.60
2009,09,11,08,47,16.70
2009,09,11,08,48,16.80
2009,09,11,08,49,17.00
2009,09,11,08,50,17.20
2009,09,11,08,51,17.40
2009,09,11,08,52,17.50
2009,09,11,08,53,17.70
2009,09,11,08,54,17.80
2009,09,11,08,55,17.90
2009,09,11,08,56,18.00
2009,09,11,08,57,18.20
2009,09,11,08,58,18.30
2009,09,11,08,59,18.40
2009,09,11,09,00,18.50
2009,09,11,09,01,18.60
2009,09,11,09,02,18.70
2009,09,11,09,03,18.80
2009,09,11,09,04,18.80
2009,09,11,09,05,18.90
2009,09,11,09,06,19.00
2009,09,11,09,07,19.10
2009,09,11,09,08,19.10
2009,09,11,09,09,19.20
2009,09,11,09,10,19.20
2009,09,11,09,11,19.30
2009,09,11,09,12,19.30
2009,09,11,09,13,19.40
2009,09,11,09,14,19.50
2009,09,11,09,15,19.60
2009,09,11,09,16,19.70
2009,09,11,09,17,19.70
2009,09,11,09,18,19.80
2009,09,11,09,19,19.90
2009,09,11,09,20,20.00
2009,09,11,09,21,20.00
2009,09,11,09,22,20.10
2009,09,11,09,23,20.20
2009,09,11,09,24,20.20
2009,09,11,09,25,20.30
2009,09,11,09,26,20.30
2009,09,11,09,27,20.30
2009,09,11,09,28,20.40
2009,09,11,09,29,20.40
2009,09,11,09,30,20.40
2009,09,11,09,31,20.50
2009,09,11,09,32,20.50
2009,09,11,09,33,20.60
2009,09,11,09,34,20.60
2009,09,11,09,35,20.60
2009,09,11,09,36,20.70
2009,09,11,09,37,20.70
2009,09,11,09,38,20.80
2009,09,11,09,39,20.80
2009,09,11,09,40,20.80
2009,09,11,09,41,20.80
2009,09,11,09,42,20.90
2009,09,11,09,43,20.90
2009,09,11,09,44,20.90
2009,09,11,09,45,21.00
2009,09,11,09,46,21.00
2009,09,11,09,47,21.10
2009,09,11,09,48,21.10
2009,09,11,09,49,21.20
2009,09,11,09,50,21.20
2009,09,11,09,51,21.20
2009,09,11,09,52,21.20
2009,09,11,09,53,21.30
2009,09,11,09,54,21.30
2009,09,11,09,55,21.30
2009,09,11,09,56,21.30
2009,09,11,09,57,21.40
2009,09,11,09,58,21.40
2009,09,11,09,59,21.40
2009,09,11,10,00,21.40
2009,09,11,10,01,21.50
2009,09,11,10,02,21.50
2009,09,11,10,03,21.60
2009,09,11,10,04,21.60
2009,09,11,10,05,21.60
2009,09,11,10,06,21.70
2009,09,11,10,07,21.70
2009,09,11,10,08,21.70
2009,09,11,10,09,21.70
2009,09,11,10,10,21.70
2009,09,11,10,11,21.70
2009,09,11,10,12,21.80
2009,09,11,10,13,21.80
2009,09,11,10,14,21.80
2009,09,11,10,15,21.80
2009,09,11,10,16,21.80
2009,09,11,10,17,21.80
2009,09,11,10,18,21.80
2009,09,11,10,19,21.80
2009,09,11,10,20,21.80
2009,09,11,10,21,21.80
2009,09,11,10,22,21.80
2009,09,11,10,23,21.80
2009,09,11,10,24,21.80
2009,09,11,10,25,21.80
2009,09,11,10,26,21.80
2009,09,11,10,27,21.80
2009,09,11,10,28,21.80
2009,09,11,10,29,21.80
2009,09,11,10,30,21.80
2009,09,11,10,31,21.70
2009,09,11,10,32,21.70
2009,09,11,10,33,21.60
2009,09,11,10,34,21.60
2009,09,11,10,35,21.60
2009,09,11,10,36,21.60
2009,09,11,10,37,21.60
2009,09,11,10,38,21.60
2009,09,11,10,39,21.60
2009,09,11,10,40,21.60
2009,09,11,10,41,21.60
2009,09,11,10,42,21.70
2009,09,11,10,43,21.70
2009,09,11,10,44,21.80
2009,09,11,10,45,21.80
2009,09,11,10,46,21.80
2009,09,11,10,47,21.90
2009,09,11,10,48,22.00
2009,09,11,10,49,22.00
2009,09,11,10,50,22.10
2009,09,11,10,51,22.10
2009,09,11,10,52,22.10
2009,09,11,10,53,22.20
2009,09,11,10,54,22.20
2009,09,11,10,55,22.20
2009,09,11,10,56,22.20
2009,09,11,10,57,22.30
2009,09,11,10,58,22.30
2009,09,11,10,59,22.30
2009,09,11,11,00,22.30
2009,09,11,11,01,22.30
2009,09,11,11,02,22.30
2009,09,11,11,03,22.40
2009,09,11,11,04,22.40
2009,09,11,11,05,22.40
2009,09,11,11,06,22.40
2009,09,11,11,07,22.50
2009,09,11,11,08,22.50
2009,09,11,11,09,22.60
2009,09,11,11,10,22.60
2009,09,11,11,11,22.60
2009,09,11,11,12,22.60
2009,09,11,11,13,22.60
2009,09,11,11,14,22.60
2009,09,11,11,15,22.70
2009,09,11,11,16,22.70
2009,09,11,11,17,22.70
2009,09,11,11,18,22.70
2009,09,11,11,19,22.70
2009,09,11,11,20,22.70
2009,09,11,11,21,22.70
2009,09,11,11,22,22.70
2009,09,11,11,23,22.80
2009,09,11,11,24,22.80
2009,09,11,11,25,22.80
2009,09,11,11,26,22.80
2009,09,11,11,27,22.90
2009,09,11,11,28,22.90
2009,09,11,11,29,23.00
2009,09,11,11,30,23.10
2009,09,11,11,31,23.10
2009,09,11,11,32,23.20
2009,09,11,11,33,23.20
2009,09,11,11,34,23.20
2009,09,11,11,35,23.20
2009,09,11,11,36,23.10
2009,09,11,11,37,23.10
2009,09,11,11,38,23.10
2009,09,11,11,39,23.00
2009,09,11,11,40,23.00
2009,09,11,11,41,22.90
2009,09,11,11,42,22.90
2009,09,11,11,43,22.90
2009,09,11,11,44,22.90
2009,09,11,11,45,22.90
2009,09,11,11,46,22.90
2009,09,11,11,47,22.90
2009,09,11,11,48,23.00
2009,09,11,11,49,23.00
2009,09,11,11,50,23.00
2009,09,11,11,51,23.00
2009,09,11,11,52,23.10
2009,09,11,11,53,23.10
2009,09,11,11,54,23.10
2009,09,11,11,55,23.10
2009,09,11,11,56,23.10
2009,09,11,11,57,23.20
2009,09,11,11,58,23.20
2009,09,11,11,59,23.20
2009,09,11,12,00,23.20
2009,09,11,12,01,23.30
2009,09,11,12,02,23.30
2009,09,11,12,03,23.30
2009,09,11,12,04,23.30
2009,09,11,12,05,23.30
2009,09,11,12,06,23.30
2009,09,11,12,07,23.30
2009,09,11,12,08,23.30
2009,09,11,12,09,23.30
2009,09,11,12,10,23.30
2009,09,11,12,11,23.40
2009,09,11,12,12,23.40
2009,09,11,12,13,23.40
2009,09,11,12,14,23.40
2009,09,11,12,15,23.40
2009,09,11,12,16,23.40
2009,09,11,12,17,23.40
2009,09,11,12,18,23.40
2009,09,11,12,19,23.40
2009,09,11,12,20,23.30
2009,09,11,12,21,23.20
2009,09,11,12,22,23.20
2009,09,11,12,23,23.20
2009,09,11,12,24,23.20
2009,09,11,12,25,23.20
2009,09,11,12,26,23.20
2009,09,11,12,27,23.30
2009,09,11,12,28,23.30
2009,09,11,12,29,23.30
2009,09,11,12,30,23.40
2009,09,11,12,31,23.40
2009,09,11,12,32,23.50
2009,09,11,12,33,23.60
2009,09,11,12,34,23.60
2009,09,11,12,35,23.70
2009,09,11,12,36,23.80
2009,09,11,12,37,23.80
2009,09,11,12,38,23.80
2009,09,11,12,39,23.80
2009,09,11,12,40,23.80
2009,09,11,12,41,23.80
2009,09,11,12,42,23.80
2009,09,11,12,43,23.80
2009,09,11,12,44,23.80
2009,09,11,12,45,23.80
2009,09,11,12,46,23.80
2009,09,11,12,47,23.80
2009,09,11,12,48,23.80
2009,09,11,12,49,23.90
2009,09,11,12,50,24.00
2009,09,11,12,51,24.00
2009,09,11,12,52,23.90
2009,09,11,12,53,23.90
2009,09,11,12,54,23.90
2009,09,11,12,55,23.90
2009,09,11,12,56,23.90
2009,09,11,12,57,24.00
2009,09,11,12,58,24.10
2009,09,11,12,59,24.10
2009,09,11,13,00,24.10
2009,09,11,13,01,24.20
2009,09,11,13,02,24.30
2009,09,11,13,03,24.30
2009,09,11,13,04,24.40
2009,09,11,13,05,24.40
2009,09,11,13,06,24.50
2009,09,11,13,07,24.50
2009,09,11,13,08,24.50
2009,09,11,13,09,24.60
2009,09,11,13,10,24.60
2009,09,11,13,11,24.70
2009,09,11,13,12,24.70
2009,09,11,13,13,24.70
2009,09,11,13,14,24.60
2009,09,11,13,15,24.60
2009,09,11,13,16,24.60
2009,09,11,13,17,24.50
2009,09,11,13,18,24.50
2009,09,11,13,19,24.50
2009,09,11,13,20,24.50
2009,09,11,13,21,24.60
2009,09,11,13,22,24.60
2009,09,11,13,23,24.70
2009,09,11,13,24,24.70
2009,09,11,13,25,24.70
2009,09,11,13,26,24.60
2009,09,11,13,27,24.60
2009,09,11,13,28,24.50
2009,09,11,13,29,24.50
2009,09,11,13,30,24.50
2009,09,11,13,31,24.60
2009,09,11,13,32,24.60
2009,09,11,13,33,24.60
2009,09,11,13,34,24.70
2009,09,11,13,35,24.70
2009,09,11,13,36,24.70
2009,09,11,13,37,24.80
2009,09,11,13,38,24.80
2009,09,11,13,39,24.90
2009,09,11,13,40,24.90
2009,09,11,13,41,24.90
2009,09,11,13,42,24.90
2009,09,11,13,43,24.80
2009,09,11,13,44,24.80
2009,09,11,13,45,24.80
2009,09,11,13,46,24.80
2009,09,11,13,47,24.80
2009,09,11,13,48,24.80
2009,09,11,13,49,24.80
2009,09,11,13,50,24.80
2009,09,11,13,51,24.80
2009,09,11,13,52,24.90
2009,09,11,13,53,24.90
2009,09,11,13,54,24.90
2009,09,11,13,55,24.90
2009,09,11,13,56,25.00
2009,09,11,13,57,25.00
2009,09,11,13,58,25.00
2009,09,11,13,59,25.10
2009,09,11,14,00,25.10
2009,09,11,14,01,25.10
2009,09,11,14,02,25.10
2009,09,11,14,03,25.10
2009,09,11,14,04,25.20
2009,09,11,14,05,25.20
2009,09,11,14,06,25.20
2009,09,11,14,07,25.20
2009,09,11,14,08,25.30
2009,09,11,14,09,25.30
2009,09,11,14,10,25.40
2009,09,11,14,11,25.40
2009,09,11,14,12,25.40
2009,09,11,14,13,25.40
2009,09,11,14,14,25.40
2009,09,11,14,15,25.40
2009,09,11,14,16,25.40
2009,09,11,14,17,25.40
2009,09,11,14,18,25.50
2009,09,11,14,19,25.50
2009,09,11,14,20,25.60
2009,09,11,14,21,25.60
2009,09,11,14,22,25.70
2009,09,11,14,23,25.70
2009,09,11,14,24,25.80
2009,09,11,14,25,25.80
2009,09,11,14,26,25.80
2009,09,11,14,27,25.70
2009,09,11,14,28,25.70
2009,09,11,14,29,25.70
2009,09,11,14,30,25.70
2009,09,11,14,31,25.80
2009,09,11,14,32,25.80
2009,09,11,14,33,25.80
2009,09,11,14,34,25.80
2009,09,11,14,35,25.90
2009,09,11,14,36,25.90
2009,09,11,14,37,25.90
2009,09,11,14,38,25.90
2009,09,11,14,39,26.00
2009,09,11,14,40,26.00
2009,09,11,14,41,26.10
2009,09,11,14,42,26.10
2009,09,11,14,43,26.20
2009,09,11,14,44,26.30
2009,09,11,14,45,26.40
2009,09,11,14,46,26.40
2009,09,11,14,47,26.40
2009,09,11,14,48,26.40
2009,09,11,14,49,26.40
2009,09,11,14,50,26.40
2009,09,11,14,51,26.40
2009,09,11,14,52,26.50
2009,09,11,14,53,26.40
2009,09,11,14,54,26.40
2009,09,11,14,55,26.40
2009,09,11,14,56,26.30
2009,09,11,14,57,26.30
2009,09,11,14,58,26.30
2009,09,11,14,59,26.30
2009,09,11,15,00,26.30
2009,09,11,15,01,26.30
2009,09,11,15,02,26.30
2009,09,11,15,03,26.40
2009,09,11,15,04,26.40
2009,09,11,15,05,26.40
2009,09,11,15,06,26.40
2009,09,11,15,07,26.40
2009,09,11,15,08,26.40
2009,09,11,15,09,26.40
2009,09,11,15,10,26.40
2009,09,11,15,11,26.30
2009,09,11,15,12,26.30
2009,09,11,15,13,26.30
2009,09,11,15,14,26.30
2009,09,11,15,15,26.30
2009,09,11,15,16,26.30
2009,09,11,15,17,26.30
2009,09,11,15,18,26.30
2009,09,11,15,19,26.30
2009,09,11,15,20,26.30
2009,09,11,15,21,26.30
2009,09,11,15,22,26.30
2009,09,11,15,23,26.30
2009,09,11,15,24,26.30
2009,09,11,15,25,26.30
2009,09,11,15,26,26.30
2009,09,11,15,27,26.30
2009,09,11,15,28,26.30
2009,09,11,15,29,26.30
2009,09,11,15,30,26.30
2009,09,11,15,31,26.30
2009,09,11,15,32,26.40
2009,09,11,15,33,26.40
2009,09,11,15,34,26.40
2009,09,11,15,35,26.50
2009,09,11,15,36,26.60
2009,09,11,15,37,26.60
2009,09,11,15,38,26.60
2009,09,11,15,39,26.50
2009,09,11,15,40,26.50
2009,09,11,15,41,26.40
2009,09,11,15,42,26.50
2009,09,11,15,43,26.50
2009,09,11,15,44,26.60
2009,09,11,15,45,26.70
2009,09,11,15,46,26.70
2009,09,11,15,47,26.70
2009,09,11,15,48,26.70
2009,09,11,15,49,26.70
2009,09,11,15,50,26.70
2009,09,11,15,51,26.70
2009,09,11,15,52,26.60
2009,09,11,15,53,26.60
2009,09,11,15,54,26.60
2009,09,11,15,55,26.70
2009,09,11,15,56,26.70
2009,09,11,15,57,26.70
2009,09,11,15,58,26.70
2009,09,11,15,59,26.70
2009,09,11,16,00,26.70
2009,09,11,16,01,26.70
2009,09,11,16,02,26.60
2009,09,11,16,03,26.60
2009,09,11,16,04,26.60
2009,09,11,16,05,26.60
2009,09,11,16,06,26.60
2009,09,11,16,07,26.60
2009,09,11,16,08,26.60
2009,09,11,16,09,26.60
2009,09,11,16,10,26.70
2009,09,11,16,11,26.70
2009,09,11,16,12,26.70
2009,09,11,16,13,26.70
2009,09,11,16,14,26.60
2009,09,11,16,15,26.60
2009,09,11,16,16,26.60
2009,09,11,16,17,26.50
2009,09,11,16,18,26.50
2009,09,11,16,19,26.40
2009,09,11,16,20,26.40
2009,09,11,16,21,26.40
2009,09,11,16,22,26.40
2009,09,11,16,23,26.40
2009,09,11,16,24,26.50
2009,09,11,16,25,26.50
2009,09,11,16,26,26.60
2009,09,11,16,27,26.60
2009,09,11,16,28,26.70
2009,09,11,16,29,26.70
2009,09,11,16,30,26.70
2009,09,11,16,31,26.70
2009,09,11,16,32,26.70
2009,09,11,16,33,26.60
2009,09,11,16,34,26.60
2009,09,11,16,35,26.60
2009,09,11,16,36,26.60
2009,09,11,16,37,26.60
2009,09,11,16,38,26.70
2009,09,11,16,39,26.70
2009,09,11,16,40,26.70
2009,09,11,16,41,26.80
2009,09,11,16,42,26.80
2009,09,11,16,43,26.80
2009,09,11,16,44,26.80
2009,09,11,16,45,26.70
2009,09,11,16,46,26.70
2009,09,11,16,47,26.70
2009,09,11,16,48,26.70
2009,09,11,16,49,26.70
2009,09,11,16,50,26.60
2009,09,11,16,51,26.60
2009,09,11,16,52,26.60
2009,09,11,16,53,26.70
2009,09,11,16,54,26.70
2009,09,11,16,55,26.70
2009,09,11,16,56,26.70
2009,09,11,16,57,26.70
2009,09,11,16,58,26.70
2009,09,11,16,59,26.70
2009,09,11,17,00,26.70
2009,09,11,17,01,26.70
2009,09,11,17,02,26.70
2009,09,11,17,03,26.70
2009,09,11,17,04,26.70
2009,09,11,17,05,26.70
2009,09,11,17,06,26.70
2009,09,11,17,07,26.70
2009,09,11,17,08,26.70
2009,09,11,17,09,26.70
2009,09,11,17,10,26.70
2009,09,11,17,11,26.70
2009,09,11,17,12,26.70
2009,09,11,17,13,26.70
2009,09,11,17,14,26.60
2009,09,11,17,15,26.60
2009,09,11,17,16,26.60
2009,09,11,17,17,26.60
2009,09,11,17,18,26.50
2009,09,11,17,19,26.50